Location: Fort Wayne
(41.1310°N, 85.1290°W)
Time: 22:51:28
(UTC-05:00)

IDEFIX/ARIANE 42P - Visible Passes

Search period start: 08 December 2016 00:00
Search period end: 18 December 2016 00:00
Orbit: 784 x 804 km, 98.2° (Epoch: 07 December)

Date Brightness Start Highest point End Pass type
(mag) Time Alt. Az. Time Alt. Az. Time Alt. Az.
08 Dec 3.7 06:37:07 10° NNE 06:42:09 47° E 06:47:08 10° S visible
08 Dec 2.5 17:55:29 10° SSE 18:00:38 68° ENE 18:05:47 10° N visible
08 Dec 5.6 19:37:59 10° WSW 19:40:42 14° W 19:43:25 10° WNW visible
09 Dec 4.8 06:09:20 10° NE 06:13:40 26° E 06:17:58 10° SSE visible
09 Dec 4.8 19:07:48 10° SSW 19:12:06 26° W 19:16:25 10° NW visible
10 Dec 5.6 05:42:20 10° ENE 05:45:03 14° E 05:47:45 10° ESE visible
10 Dec 2.6 07:19:57 10° N 07:25:08 69° WNW 07:30:18 10° SSW visible
10 Dec 3.6 18:38:37 10° S 18:43:37 48° W 18:48:38 10° NNW visible
11 Dec 3.0 06:51:38 10° NNE 06:56:50 66° ESE 07:02:00 10° S visible
11 Dec 2.6 18:10:03 10° SSE 18:15:15 88° W 18:20:28 10° NNW visible
12 Dec 4.2 06:23:38 10° NNE 06:28:24 36° E 06:33:11 10° SSE visible
12 Dec 2.7 17:41:59 10° SSE 17:46:59 51° ENE 17:52:01 10° N visible
12 Dec 5.3 19:23:15 10° SW 19:26:53 19° W 19:30:31 10° NW visible
13 Dec 5.3 05:56:06 10° NE 05:59:53 20° E 06:03:38 10° SE visible
13 Dec 4.3 18:53:38 10° SSW 18:58:20 34° W 19:03:03 10° NNW visible
14 Dec 5.9 05:30:34 10° E 05:31:12 10° E 05:31:51 10° E visible
14 Dec 2.6 07:06:15 10° NNE 07:11:29 89° W 07:16:42 10° SSW visible
14 Dec 3.1 18:24:46 10° S 18:29:54 64° W 18:35:03 10° NNW visible
15 Dec 3.6 06:38:03 10° NNE 06:43:07 50° E 06:48:10 10° S visible
15 Dec 2.5 17:56:26 10° SSE 18:01:34 71° ENE 18:06:45 10° N visible
15 Dec 5.6 19:39:12 10° WSW 19:41:41 13° W 19:44:11 10° WNW visible
16 Dec 4.7 06:10:14 10° NE 06:14:39 27° E 06:19:03 10° SSE visible
16 Dec 4.8 19:08:52 10° SSW 19:13:04 25° W 19:17:19 10° NW visible
17 Dec 5.6 05:43:07 10° NE 05:46:03 15° E 05:48:58 10° SE visible
17 Dec 2.6 07:20:56 10° N 07:26:06 66° WNW 07:31:16 10° SSW visible
17 Dec 3.7 18:39:38 10° S 18:44:35 45° W 18:49:34 10° NNW visible
